Weather History for Covington, KY

Change the Weather History Date:

Friday, December 21, 2012

  Actual Average Record
Temperature  
Mean Temperature 29 °F 32 °F  
Max Temperature 32 °F 40 °F 69 °F (1967)
Min Temperature 26 °F 25 °F -14 °F (1989)
Degree Days  
Heating Degree Days 36 32  
Month to date heating degree days 422 625  
Since 1 July heating degree days 1528 1585  
Cooling Degree Days 0 0  
Month to date cooling degree days 0 0  
Year to date cooling degree days 1439 1121  
Moisture  
Dew Point 22 °F    
Average Humidity 79    
Maximum Humidity 85    
Minimum Humidity 72    
Precipitation  
Precipitation 0.08 in 0.11 in 2.47 in (1998)
Month to date precipitation 4.60 2.27  
Year to date precipitation 37.63 41.42  
Snow  
Snow 0.90 in 0.10 in 3.90 in (1981)
Month to date snowfall 0.9 2.8  
Since 1 July snowfall 0.9 3.6  
Snow Depth 1.00 in    
Sea Level Pressure  
Sea Level Pressure 29.80 in    
Wind  
Wind Speed 21 mph (West)    
Max Wind Speed 33 mph    
Max Gust Speed 43 mph    
Visibility 7 miles    
Events Snow    
T = Trace of Precipitation, MM = Missing Value Source: NWS Daily Summary

Daily Weather History Graph

Daily Weather History Graph

Search for Another Location

Airport:

Trip Planner

Search our weather history database for the weather conditions in past years. The results will help you decide how hot, cold, wet, or windy it might be!

Date:

Astronomy

Dec. 21, 2012 Rise Set
Actual Time 7:54 AM EST 5:19 PM EST
Civil Twilight 7:24 AM EST 5:49 PM EST
Nautical Twilight 6:50 AM EST 6:23 PM EST
Astronomical Twilight 6:18 AM EST 6:56 PM EST
Moon 1:04 PM EST (12/21) 1:42 AM EST (12/21)
Length of Visible Light 10h 25m
Length of Day
9h 25m
Waxing Gibbous, 64% of the Moon is Illuminated
Dec 21
Waxing Gibbous
Dec 28
Full
Jan 4
Last Quarter
Jan 11
New
Jan 18
First Quarter

Hourly Weather History & Observations

Time (EST) Temp. Windchill Dew Point Humidity Pressure Visibility Wind Dir Wind Speed Gust Speed Precip Events Conditions
12:52 AM 30.9 °F 18.7 °F 24.1 °F 76% 29.56 in 6.0 mi WSW 19.6 mph 39.1 mph 0.00 in Snow Light Snow
1:52 AM 30.9 °F 18.4 °F 23.0 °F 72% 29.57 in 9.0 mi WSW 20.7 mph 31.1 mph 0.00 in Snow Light Snow
3:52 AM 28.9 °F 15.1 °F 24.1 °F 82% 29.61 in 2.5 mi WSW 23.0 mph 33.4 mph 0.00 in Snow Light Snow
4:52 AM 28.0 °F 16.1 °F 23.0 °F 81% 29.63 in 4.0 mi West 16.1 mph 32.2 mph 0.00 in Snow Light Snow
5:23 AM 28.4 °F 14.7 °F 23.0 °F 80% 29.62 in 2.0 mi West 21.9 mph 35.7 mph 0.00 in Snow Light Snow
5:32 AM 26.6 °F 13.4 °F 23.0 °F 86% 29.62 in 1.0 mi West 18.4 mph 33.4 mph 0.00 in Snow Light Snow
5:52 AM 27.0 °F 13.5 °F 23.0 °F 85% 29.65 in 1.5 mi West 19.6 mph 26.5 mph 0.00 in Snow Light Snow
6:00 AM 26.6 °F 13.1 °F 23.0 °F 86% 29.63 in 4.0 mi West 19.6 mph 27.6 mph 0.00 in Snow Light Snow
6:52 AM 28.0 °F 14.6 °F 21.9 °F 78% 29.67 in 7.0 mi West 20.7 mph 32.2 mph 0.01 in Snow Light Snow
7:52 AM 28.0 °F 14.3 °F 21.9 °F 78% 29.70 in 7.0 mi West 21.9 mph 33.4 mph 0.00 in   Overcast
8:40 AM 26.6 °F 12.7 °F 21.2 °F 80% 29.71 in 2.5 mi West 20.7 mph 31.1 mph 0.00 in Snow Light Snow
8:52 AM 27.0 °F 13.2 °F 21.9 °F 81% 29.73 in 2.5 mi West 20.7 mph 32.2 mph 0.00 in Snow Light Snow
9:52 AM 27.0 °F 11.0 °F 21.9 °F 81% 29.77 in 2.0 mi West 28.8 mph 36.8 mph 0.00 in Snow Light Snow
10:02 AM 26.6 °F 10.8 °F 21.2 °F 80% 29.76 in 6.0 mi West 27.6 mph 34.5 mph 0.00 in Snow Light Snow
10:52 AM 27.0 °F 11.6 °F 21.0 °F 78% 29.81 in 5.0 mi West 26.5 mph 35.7 mph 0.00 in Snow Light Snow
11:52 AM 26.1 °F 10.4 °F 19.9 °F 78% 29.82 in 8.0 mi West 26.5 mph 33.4 mph 0.00 in Snow Light Snow
12:52 PM 26.1 °F 11.3 °F 19.9 °F 78% 29.83 in 5.0 mi West 23.0 mph 34.5 mph 0.00 in Snow Light Snow
1:52 PM 27.0 °F 12.2 °F 19.9 °F 75% 29.85 in 10.0 mi West 24.2 mph 34.5 mph 0.00 in   Overcast
2:52 PM 27.0 °F 12.5 °F 19.9 °F 75% 29.88 in 10.0 mi West 23.0 mph 28.8 mph N/A   Overcast
3:52 PM 26.1 °F 11.0 °F 19.9 °F 78% 29.92 in 10.0 mi West 24.2 mph 35.7 mph N/A   Overcast
4:52 PM 27.0 °F 12.8 °F 19.9 °F 75% 29.95 in 10.0 mi West 21.9 mph 32.2 mph N/A   Overcast
5:52 PM 27.0 °F 13.5 °F 21.0 °F 78% 29.98 in 10.0 mi West 19.6 mph 28.8 mph N/A   Overcast
6:52 PM 28.0 °F 15.3 °F 21.0 °F 75% 30.01 in 10.0 mi West 18.4 mph 27.6 mph N/A   Overcast
7:52 PM 28.9 °F 16.5 °F 21.9 °F 75% 30.03 in 10.0 mi West 18.4 mph - N/A   Overcast
8:52 PM 28.9 °F 16.5 °F 21.9 °F 75% 30.06 in 10.0 mi West 18.4 mph 27.6 mph N/A   Overcast
9:52 PM 28.9 °F 16.1 °F 21.9 °F 75% 30.07 in 10.0 mi West 19.6 mph 28.8 mph N/A   Overcast
10:52 PM 28.9 °F 15.8 °F 21.9 °F 75% 30.09 in 10.0 mi West 20.7 mph 27.6 mph N/A   Overcast
11:52 PM 28.0 °F 16.1 °F 21.9 °F 78% 30.11 in 10.0 mi West 16.1 mph - N/A   Overcast